Mobile Downtown, AL

12:30 PM CDT on September 26, 2017 (GMT -0500)
Mobile Downtown

Weather History for KBFM - March, 2013

Change the Weather History Date:

Saturday, March 2, 2013

  Actual Average Record
Temperature  
Mean Temperature 40 °F -  
Max Temperature 48 °F 64 °F 78 °F (2006)
Min Temperature 33 °F 46 °F 33 °F (2009)
Degree Days  
Heating Degree Days 24    
Moisture  
Dew Point 25 °F    
Average Humidity 56    
Maximum Humidity 75    
Minimum Humidity 42    
Precipitation  
Precipitation 0.00 in - - ()
Sea Level Pressure  
Sea Level Pressure 30.18 in    
Wind  
Wind Speed 10 mph (NW)    
Max Wind Speed 20 mph    
Max Gust Speed 28 mph    
Visibility 10 miles    
Events      
Averages and records for this station are not official NWS values.
T = Trace of Precipitation, MM = Missing Value Source: NWS Daily Summary

Daily Weather History Graph

Daily Weather History Graph

Search for Another Location

Airport or City:

Trip Planner

Search our weather history database for the weather conditions in past years. The results will help you decide how hot, cold, wet, or windy it might be!

Date:

Astronomy

Mar. 02, 2013 Rise Set
Actual Time 6:17 AM CST 5:51 PM CST
Civil Twilight 5:53 AM CST 6:16 PM CST
Nautical Twilight 5:25 AM CST 6:43 PM CST
Astronomical Twilight 4:57 AM CST 7:11 PM CST
Moon 11:05 PM CST (3/2) 9:09 AM CST (3/2)
Length of Visible Light 12h 22m
Length of Day
11h 34m
Waning Gibbous, 74% of the Moon is Illuminated
Mar 2
Waning Gibbous
Mar 4
Last Quarter
Mar 11
New
Mar 19
First Quarter
Mar 27
Full

Hourly Weather History & Observations

Time (CST) Temp. Windchill Dew Point Humidity Pressure Visibility Wind Dir Wind Speed Gust Speed Precip Events Conditions
12:53 AM 37.9 °F 34.4 °F 28.9 °F 70% 30.18 in 10.0 mi WNW 4.6 mph - N/A   Clear
1:53 AM 37.0 °F 31.6 °F 27.0 °F 67% 30.16 in 10.0 mi WNW 6.9 mph - N/A   Clear
2:53 AM 36.0 °F 31.1 °F 27.0 °F 70% 30.15 in 10.0 mi WNW 5.8 mph - N/A   Clear
3:53 AM 34.0 °F 27.2 °F 27.0 °F 75% 30.14 in 10.0 mi NW 8.1 mph - N/A   Clear
4:53 AM 33.1 °F 27.7 °F 26.1 °F 75% 30.15 in 10.0 mi NW 5.8 mph - N/A   Clear
6:53 AM 34.0 °F 28.8 °F 26.1 °F 73% 30.19 in 10.0 mi WNW 5.8 mph - N/A   Partly Cloudy
7:53 AM 39.9 °F 32.9 °F 27.0 °F 60% 30.21 in 10.0 mi NNW 11.5 mph - N/A   Partly Cloudy
8:53 AM 43.0 °F 36.8 °F 26.1 °F 51% 30.21 in 10.0 mi NNW 11.5 mph - N/A   Partly Cloudy
9:53 AM 45.0 °F 39.3 °F 25.0 °F 46% 30.20 in 10.0 mi NNW 11.5 mph 21.9 mph N/A   Scattered Clouds
10:53 AM 48.0 °F - 26.1 °F 42% 30.18 in 10.0 mi NW 15.0 mph 27.6 mph N/A   Scattered Clouds
11:53 AM 48.0 °F - 26.1 °F 42% 30.16 in 10.0 mi WNW 13.8 mph 26.5 mph N/A   Mostly Cloudy
12:53 PM 46.9 °F - 25.0 °F 42% 30.14 in 10.0 mi WNW 13.8 mph 21.9 mph N/A   Overcast
1:53 PM 46.0 °F 39.3 °F 24.1 °F 42% 30.13 in 10.0 mi NW 16.1 mph - N/A   Overcast
2:53 PM 45.0 °F 37.1 °F 25.0 °F 46% 30.13 in 10.0 mi NNW 19.6 mph 24.2 mph N/A   Overcast
3:53 PM 44.1 °F 36.5 °F 25.0 °F 47% 30.13 in 10.0 mi NNW 17.3 mph 25.3 mph N/A   Overcast
4:53 PM 42.1 °F 34.9 °F 25.0 °F 51% 30.15 in 10.0 mi NW 13.8 mph 21.9 mph N/A   Overcast
5:53 PM 41.0 °F 33.5 °F 24.1 °F 51% 30.17 in 10.0 mi NNW 13.8 mph - N/A   Overcast
7:53 PM 39.9 °F 30.8 °F 25.0 °F 55% 30.21 in 10.0 mi NNW 18.4 mph 24.2 mph N/A   Overcast
8:53 PM 39.9 °F 31.4 °F 25.0 °F 55% 30.22 in 10.0 mi NNW 16.1 mph - N/A   Overcast
9:53 PM 39.0 °F 29.9 °F 24.1 °F 55% 30.23 in 10.0 mi NW 17.3 mph 21.9 mph N/A   Overcast
10:53 PM 37.9 °F 29.2 °F 23.0 °F 55% 30.23 in 10.0 mi NW 15.0 mph - N/A   Overcast
11:53 PM 37.9 °F 30.5 °F 23.0 °F 55% 30.22 in 10.0 mi NW 11.5 mph - N/A   Overcast